This demonstration page uses our WeatherBlox Daily Observations layout. Learn more.

Left ArrowRight Arrow

Hourly Observations for September 5, 2015

Temp ( °F °C ) Dew Point ( °F °C ) Humidity (%) Winds ( mph kmh ) Pressure ( in mb ) Visibility ( mi km ) Precip ( " mm )
12:53 am 00:53 Clear 66 18.9 65 18.3 96 96 Calm 30.09 1019 9 14.48406 0 0
1:53 am 01:53 Clear 67 19.4 66 18.9 97 97 Calm 30.08 1019 7 11.26538 0 0
2:53 am 02:53 Clear with Mist and Fog 66 18.9 65 18.3 96 96 Calm 30.07 1018 4 6.43736 0 0
3:53 am 03:53 Clear with Mist and Fog 65 18.3 64 17.8 97 97 Calm 30.08 1019 4 6.43736 0 0
4:53 am 04:53 Clear with Mist and Fog 64 17.8 64 17.8 100 100 Calm 30.1 1019 5 8.0467 0 0
5:53 am 05:53 Clear with Mist and Fog 64 17.8 63 17.2 96 96 Calm 30.12 1020 5 8.0467 0 0
6:53 am 06:53 Mostly Clear with Mist and Fog 64 17.8 63 17.2 96 96 Calm 30.14 1021 2 3.21868 0 0
7:09 am 07:09 Mostly Clear with Mist and Fog 63 17.2 63 17.2 100 100 Calm 30.12 1020 4 6.43736 0 0
7:16 am 07:16 Partly Cloudy with Mist and Fog 64 17.8 63 17.2 96 96 Calm 30.12 1020 1.5 2.41401 0 0
7:26 am 07:26 Partly Cloudy with Mist and Fog 64 17.8 63 17.2 96 96 Calm 30.12 1020 4 6.43736 0 0
7:53 am 07:53 Partly Cloudy with Mist and Fog 65 18.3 64 17.8 97 97 Calm 30.15 1021 4 6.43736 0 0
8:53 am 08:53 Sunny 71 21.7 66 18.9 84 84 Calm 30.16 1021 10 16.0934 0 0
9:53 am 09:53 Sunny 75 23.9 66 18.9 74 74 Calm 30.16 1021 10 16.0934 0 0
10:53 am 10:53 Sunny 79 26.1 67 19.4 67 67 Calm 30.16 1022 10 16.0934 0 0
11:53 am 11:53 Sunny 83 28.3 67 19.4 59 59 Calm 30.16 1022 10 16.0934 0 0
12:53 pm 12:53 Sunny 86 30 67 19.4 53 53 E 5 7 30.15 1021 10 16.0934 0 0
1:53 pm 13:53 Sunny 88 31.1 67 19.4 50 50 Calm 30.13 1020 10 16.0934 0 0
2:53 pm 14:53 Sunny 89 31.7 68 20 50 50 Calm 30.11 1020 10 16.0934 0 0
3:53 pm 15:53 Sunny 90 32.2 67 19.4 47 47 Calm 30.1 1019 10 16.0934 0 0
4:53 pm 16:53 Sunny 84 28.9 74 23.3 72 72 Calm 30.08 1019 10 16.0934 0 0
5:43 pm 17:43 Sunny with Nearby Thunderstorms 89 31.7 67 19.4 48 48 NNE 3 6 30.03 1017 10 16.0934 0 0
5:53 pm 17:53 Sunny with Nearby Thunderstorms 87 30.6 69 20.6 55 55 NNE 5 7 30.08 1019 10 16.0934 0 0
6:00 pm 18:00 Sunny with Thunderstorms 86 30 71 21.7 61 61 Calm 30.03 1017 10 16.0934 0 0
6:45 pm 18:45 Cloudy with Heavy Thunderstorms 72 22.2 67 19.4 84 84 WNW 25 41 30.09 1019 1.75 2.816345 0.09 2.286
6:51 pm 18:51 Cloudy with Heavy Thunderstorms 73 23 64 18 74 74 NW 25 41 30.09 1019 0.75 1.207005 0.21 5.334
6:52 pm 18:52 Cloudy with Heavy Thunderstorms 73 22.8 64 17.8 74 74 WNW 24 39 30.11 1020 0.75 1.207005 0.23 5.842
7:02 pm 19:02 Cloudy with Heavy Thunderstorms 71 21.7 64 17.8 79 79 NW 9 15 30.09 1019 1 1.60934 0.18 4.572
7:11 pm 19:11 Cloudy with Thunderstorms 69 20.6 67 19.4 93 93 Calm 30.09 1019 2 3.21868 0.22 5.588
7:21 pm 19:21 Cloudy with Light Thunderstorms 70 21.1 68 20 93 93 SSW 3 6 30.09 1019 6 9.65604 0.22 5.588
7:41 pm 19:41 Partly Cloudy with Nearby Thunderstorms 71 21.7 69 20.6 94 94 SSE 3 6 30.09 1019 6 9.65604 0.22 5.588
7:53 pm 19:53 Partly Cloudy with Nearby Thunderstorms 72 22.2 70 21.1 94 94 WNW 3 6 30.11 1020 6 9.65604 0.22 5.588
8:08 pm 20:08 Clear with Mist and Fog 71 21.7 70 21.1 96 96 WNW 3 6 30.09 1019 5 8.0467 0 0
8:53 pm 20:53 Clear with Mist and Fog 71 21.7 69 20.6 94 94 WNW 3 6 30.12 1020 5 8.0467 0 0
9:53 pm 21:53 Clear with Mist and Fog 69 20.6 68 20 96 96 Calm 30.13 1020 3 4.82802 0 0
10:03 pm 22:03 Clear with Mist and Fog 69 20.6 68 20 96 96 Calm 30.12 1020 2.5 4.02335 0 0
10:10 pm 22:10 Clear with Mist and Fog 69 20.6 69 20.6 100 100 Calm 30.12 1020 3 4.82802 0 0
10:53 pm 22:53 Clear with Mist and Fog 69 20.6 68 20 96 96 Calm 30.12 1020 3 4.82802 0 0
11:53 pm 23:53 Clear with Mist and Fog 69 20.6 68 20 96 96 NNW 3 6 30.12 1020 4 6.43736 0 0

Powered by AerisWeather